Shepherd Bay, Nunavut

10:13 PM CST on February 22, 2017 (GMT -0600)
Shepherd Bay

Weather History for CYUS - October, 2012

Change the Weather History Date:

Friday, October 12, 2012

  Actual Average (CYYH) Record (CYYH)
Temperature  
Mean Temperature 16 °F -  
Max Temperature 24 °F 9 °F 33 °F (2007)
Min Temperature 8 °F -5 °F -7 °F (2005)
Degree Days  
Heating Degree Days 49    
Moisture  
Dew Point -    
Average Humidity    
Maximum Humidity    
Minimum Humidity    
Precipitation  
Precipitation 0.00 in 0.02 in - ()
Sea Level Pressure  
Sea Level Pressure 29.42 in    
Wind  
Wind Speed 10 mph ()    
Max Wind Speed 20 mph    
Max Gust Speed -    
Visibility 5.3 miles    
Events Rain , Snow    
Averages and records for this station are not official NWS values.
T = Trace of Precipitation, MM = Missing Value Source: Averaged Metar Reports

Daily Weather History Graph

Daily Weather History Graph

Search for Another Location

Airport or City:

Trip Planner

Search our weather history database for the weather conditions in past years. The results will help you decide how hot, cold, wet, or windy it might be!

Date:

Astronomy

Oct. 12, 2012 Rise Set
Actual Time 8:11 AM CDT 5:46 PM CDT
Civil Twilight 7:12 AM CDT 6:45 PM CDT
Nautical Twilight 6:05 AM CDT 7:51 PM CDT
Astronomical Twilight 4:55 AM CDT 9:01 PM CDT
Moon 3:35 AM CDT (10/12) 4:57 PM CDT (10/12)
Length of Visible Light 11h 32m
Length of Day
9h 35m
Waning Crescent, 10% of the Moon is Illuminated
Oct 12
Waning Crescent
Oct 15
New
Oct 21
First Quarter
Oct 29
Full
Nov 6
Last Quarter

Hourly Weather History & Observations

Time (CDT) Temp. Windchill Dew Point Humidity Pressure Visibility Wind Dir Wind Speed Gust Speed Precip Events Conditions
12:33 AM 14.0 °F 3.9 °F - N/A% 29.60 in 9.0 mi ESE 6.9 mph - N/A   Overcast
12:54 AM 12.2 °F 1.7 °F - N/A% 29.59 in 9.0 mi East 6.9 mph - N/A   Mostly Cloudy
1:00 AM 13 °F - - % 29.61 in 9 mi East 6.9 mph - -  
1:00 AM 14.0 °F 3.9 °F - N/A% 29.61 in 9.0 mi East 6.9 mph - N/A   Mostly Cloudy
1:03 AM 12.2 °F 1.7 °F - N/A% 29.59 in 9.0 mi East 6.9 mph - N/A   Mostly Cloudy
1:57 AM 12.2 °F 2.9 °F - N/A% 29.58 in 3.0 mi ESE 5.8 mph - N/A   Clear
1:59 AM 12.2 °F 2.9 °F - N/A% 29.58 in 1.1 mi ESE 5.8 mph - N/A   Clear
2:00 AM 12.2 °F 2.9 °F - N/A% 29.60 in 1.0 mi East 5.8 mph - N/A   Clear
2:07 AM 8.6 °F 0.1 °F - N/A% 29.58 in 0.4 mi ESE 4.6 mph - N/A   Clear
2:22 AM 10.4 °F - - N/A% 29.58 in 0.2 mi East 2.3 mph - N/A   Clear
2:33 AM 8.6 °F 0.1 °F - N/A% 29.58 in 0.2 mi East 4.6 mph - N/A   Clear
2:41 AM 8.6 °F -3.7 °F - N/A% 29.58 in 0.2 mi East 8.1 mph - N/A   Clear
2:44 AM 10.4 °F -0.4 °F - N/A% 29.58 in 0.1 mi East 6.9 mph - N/A   Clear
2:52 AM 8.6 °F -1.3 °F - N/A% 29.57 in 0.1 mi East 5.8 mph - N/A   Clear
3:00 AM 10.4 °F 2.2 °F - N/A% 29.60 in 0.1 mi East 4.6 mph - N/A   Clear
3:04 AM 8.6 °F 2.0 °F - N/A% 29.57 in 0.1 mi NE 3.5 mph - N/A   Clear
3:31 AM 8.6 °F -1.3 °F - N/A% 29.56 in 0.1 mi NE 5.8 mph - N/A   Clear
3:43 AM 10.4 °F 0.8 °F - N/A% 29.56 in 0.5 mi NNE 5.8 mph - N/A   Clear
3:46 AM 10.4 °F 0.8 °F - N/A% 29.56 in 1.1 mi NNE 5.8 mph - N/A   Clear
3:50 AM 10.4 °F 2.2 °F - N/A% 29.56 in 3.5 mi NNE 4.6 mph - N/A   Clear
4:00 AM 8 °F - - % 29.57 in 9 mi NE 5.8 mph - -  
4:00 AM 8.6 °F -1.3 °F - N/A% 29.57 in 9.0 mi NNE 5.8 mph - N/A   Clear
4:02 AM 8.6 °F -1.3 °F - N/A% 29.55 in 9.0 mi NNE 5.8 mph - N/A   Partly Cloudy
4:37 AM 14.0 °F 3.9 °F - N/A% 29.54 in 2.5 mi North 6.9 mph - N/A   Mostly Cloudy
4:40 AM 14.0 °F 3.9 °F - N/A% 29.54 in 1.4 mi North 6.9 mph - N/A   Mostly Cloudy
4:49 AM 14.0 °F 3.9 °F - N/A% 29.54 in 3.0 mi North 6.9 mph - N/A   Mostly Cloudy
5:00 AM 14.0 °F 3.9 °F - N/A% 29.55 in 7.0 mi North 6.9 mph - N/A   Mostly Cloudy
5:08 AM 14.0 °F 2.9 °F - N/A% 29.53 in 9.0 mi North 8.1 mph - N/A   Overcast
5:58 AM 14.0 °F 3.9 °F - N/A% 29.52 in 9.0 mi NNW 6.9 mph - N/A   Overcast
6:00 AM 14.0 °F 3.9 °F - N/A% 29.55 in 9.0 mi NNW 6.9 mph - N/A   Overcast
7:00 AM 15 °F - - % 29.52 in 9 mi NNW 9.2 mph - -   Overcast
7:00 AM 14.0 °F 2.0 °F - N/A% 29.52 in 9.0 mi NNW 9.2 mph - N/A   Overcast
8:00 AM 14.0 °F 0.5 °F - N/A% 29.49 in 9.0 mi NNW 11.5 mph - N/A   Partly Cloudy
8:51 AM 15.8 °F 4.2 °F - N/A% 29.45 in 7.0 mi NNW 9.2 mph - N/A Snow Light Snow
8:57 AM 15.8 °F 4.2 °F - N/A% 29.45 in 2.8 mi NNW 9.2 mph - N/A Snow Light Snow
9:10 AM 17.6 °F 7.3 °F - N/A% 29.44 in 2.1 mi North 8.1 mph - N/A   Mostly Cloudy
9:28 AM 17.6 °F 6.4 °F - N/A% 29.44 in 7.0 mi NNW 9.2 mph - N/A   Partly Cloudy
9:39 AM 17.6 °F 6.4 °F - N/A% 29.43 in 5.0 mi NNW 9.2 mph - N/A Snow Light Snow
9:42 AM 17.6 °F 5.7 °F - N/A% 29.43 in 2.4 mi NNW 10.4 mph - N/A Snow Light Snow
9:45 AM 17.6 °F 5.7 °F - N/A% 29.43 in 1.2 mi NNW 10.4 mph - N/A Snow Light Snow
9:49 AM 17.6 °F 7.3 °F - N/A% 29.43 in 1.0 mi NW 8.1 mph - N/A Snow Light Snow
10:00 AM 19 °F - - % 29.44 in 1 mi NNW 10.4 mph - - Snow Light Snow
10:00 AM 19.4 °F 7.2 °F - N/A% 29.44 in 1.0 mi NNW 11.5 mph - N/A Snow Light Snow
10:05 AM 19.4 °F 6.6 °F - N/A% 29.43 in 1.5 mi NNW 12.7 mph - N/A Snow Light Snow
10:14 AM 19.4 °F 6.0 °F - N/A% 29.42 in 2.4 mi NNW 13.8 mph - N/A   Partly Cloudy
10:51 AM 19.4 °F 6.0 °F - N/A% 29.41 in 1.4 mi NNW 13.8 mph - N/A   Clear
10:52 AM 19.4 °F 6.0 °F - N/A% 29.40 in 1.4 mi NNW 13.8 mph - N/A Snow Light Snow
10:54 AM 21.2 °F 8.3 °F - N/A% 29.40 in 1.2 mi NNW 13.8 mph - N/A Snow Light Snow
11:00 AM 21.2 °F 8.3 °F - N/A% 29.42 in 1.2 mi NNW 13.8 mph - N/A Snow Light Snow
11:02 AM 21.2 °F 8.3 °F - N/A% 29.40 in 1.2 mi NNW 13.8 mph - N/A Snow Light Snow
11:16 AM 19.4 °F 6.0 °F - N/A% 29.40 in 2.6 mi NNW 13.8 mph - N/A   Partly Cloudy
11:26 AM 19.4 °F 6.6 °F - N/A% 29.39 in 4.0 mi NNW 12.7 mph - N/A   Clear
11:45 AM 19.4 °F 6.6 °F - N/A% 29.38 in 4.0 mi NW 12.7 mph - N/A Snow Light Snow
12:00 PM 21.2 °F 8.9 °F - N/A% 29.39 in 4.0 mi NW 12.7 mph - N/A Snow Light Snow
12:02 PM 21.2 °F 9.5 °F - N/A% 29.37 in 5.0 mi NW 11.5 mph - N/A   Clear
1:00 PM 20 °F - - % 29.37 in 3 mi NNW 16.1 mph - -  
1:00 PM 21.2 °F 7.3 °F - N/A% 29.37 in 3.5 mi NW 16.1 mph - N/A   Clear
1:42 PM 21.2 °F 6.8 °F - N/A% 29.34 in 3.0 mi NW 17.3 mph - N/A   Clear
2:00 PM 21.2 °F 6.8 °F - N/A% 29.36 in 3.0 mi NW 17.3 mph - N/A   Clear
2:41 PM 21.2 °F 6.8 °F - N/A% 29.33 in 5.0 mi NW 17.3 mph - N/A Snow Light Snow
2:42 PM 21.2 °F 6.4 °F - N/A% 29.33 in 5.0 mi NW 18.4 mph - N/A   Scattered Clouds
2:43 PM 21.2 °F 6.4 °F - N/A% 29.33 in 4.0 mi NW 18.4 mph - N/A Snow Light Snow
2:45 PM 21.2 °F 6.8 °F - N/A% 29.33 in 3.0 mi NW 17.3 mph - N/A Snow Light Snow
2:46 PM 21.2 °F 6.4 °F - N/A% 29.33 in 2.6 mi NW 18.4 mph - N/A Snow Light Snow
2:59 PM 21.2 °F 6.8 °F - N/A% 29.33 in 7.0 mi NW 17.3 mph - N/A Snow Light Snow
3:00 PM 21.2 °F 6.8 °F - N/A% 29.35 in 7.0 mi NW 17.3 mph - N/A Snow Light Snow
3:01 PM 21.2 °F 6.4 °F - N/A% 29.33 in 7.0 mi NW 18.4 mph - N/A   Overcast
3:14 PM 21.2 °F 6.4 °F - N/A% 29.33 in 1.1 mi NW 18.4 mph - N/A   Overcast
3:15 PM 21.2 °F 6.4 °F - N/A% 29.33 in 1.0 mi NW 18.4 mph - N/A   Overcast
3:19 PM 21.2 °F 6.8 °F - N/A% 29.33 in 0.8 mi NW 17.3 mph - N/A   Overcast
3:25 PM 21.2 °F 6.8 °F - N/A% 29.32 in 2.5 mi NW 17.3 mph - N/A   Overcast
3:35 PM 21.2 °F 6.0 °F - N/A% 29.32 in 4.0 mi NW 19.6 mph - N/A   Overcast
3:55 PM 19.4 °F 4.5 °F - N/A% 29.32 in 7.0 mi NW 17.3 mph - N/A   Scattered Clouds
4:00 PM 20 °F - - % 29.34 in 9 mi NW 17.3 mph - -  
4:00 PM 19.4 °F 4.5 °F - N/A% 29.34 in 9.0 mi NW 17.3 mph - N/A   Scattered Clouds
4:13 PM 21.2 °F 6.4 °F - N/A% 29.31 in 9.0 mi NW 18.4 mph - N/A   Mostly Cloudy
4:16 PM 21.2 °F 6.4 °F - N/A% 29.31 in 9.0 mi NW 18.4 mph - N/A   Mostly Cloudy
5:22 PM 21.2 °F 6.4 °F - N/A% 29.30 in 9.0 mi WNW 18.4 mph - N/A   Mostly Cloudy
5:31 PM 21.2 °F 7.3 °F - N/A% 29.30 in 9.0 mi WNW 16.1 mph - N/A   Overcast
5:47 PM 21.2 °F 6.8 °F - N/A% 29.30 in 9.0 mi WNW 17.3 mph - N/A   Mostly Cloudy
5:48 PM 21.2 °F 7.3 °F - N/A% 29.30 in 9.0 mi WNW 16.1 mph - N/A   Mostly Cloudy
5:52 PM 21.2 °F 7.3 °F - N/A% 29.30 in 9.0 mi WNW 16.1 mph - N/A   Mostly Cloudy
5:57 PM 21.2 °F 6.4 °F - N/A% 29.30 in 9.0 mi WNW 18.4 mph - N/A   Scattered Clouds
6:00 PM 21.2 °F 6.8 °F - N/A% 29.32 in 9.0 mi WNW 17.3 mph - N/A   Scattered Clouds
6:04 PM 21.2 °F 6.4 °F - N/A% 29.30 in 9.0 mi WNW 18.4 mph - N/A   Mostly Cloudy
6:10 PM 23.0 °F 8.3 °F - N/A% 29.30 in 9.0 mi WNW 19.6 mph - N/A   Mostly Cloudy
6:15 PM 21.2 °F 6.4 °F - N/A% 29.30 in 9.0 mi WNW 18.4 mph - N/A   Overcast
7:00 PM 23.0 °F 8.7 °F - N/A% 29.32 in 9.0 mi WNW 18.4 mph - N/A   Overcast
8:00 PM 24.8 °F 10.7 °F - N/A% 29.32 in 9.0 mi West 19.6 mph - N/A   Overcast
8:20 PM 24.8 °F 11.5 °F - N/A% 29.30 in 9.0 mi West 17.3 mph - N/A   Overcast
9:00 PM 24.8 °F 11.5 °F - N/A% 29.31 in 9.0 mi WNW 17.3 mph - N/A   Overcast
9:02 PM 24.8 °F 11.9 °F - N/A% 29.29 in 9.0 mi WNW 16.1 mph - N/A   Overcast
9:52 PM 24.8 °F 11.5 °F - N/A% 29.30 in 9.0 mi WNW 17.3 mph - N/A   Overcast
9:58 PM 24.8 °F 11.9 °F - N/A% 29.30 in 9.0 mi WNW 16.1 mph - N/A   Overcast
10:00 PM 24 °F - - % 29.32 in 9 mi WNW 17.3 mph - -   Overcast
10:00 PM 24.8 °F 11.9 °F - N/A% 29.32 in 9.0 mi WNW 16.1 mph - N/A   Overcast
10:43 PM 24.8 °F 12.9 °F - N/A% 29.30 in 9.0 mi West 13.8 mph - N/A Rain Light Freezing Rain
10:44 PM 24.8 °F 13.4 °F - N/A% 29.30 in 9.0 mi West 12.7 mph - N/A   Overcast
11:00 PM 24.8 °F 12.9 °F - N/A% 29.32 in 9.0 mi West 13.8 mph - N/A   Overcast
11:30 PM 24.8 °F 14.0 °F - N/A% 29.30 in 9.0 mi West 11.5 mph - N/A   Overcast
11:50 PM 24.8 °F 13.4 °F - N/A% 29.30 in 9.0 mi West 12.7 mph - N/A   Overcast